C/2001 T4 (NEAT)                                                      

Epoch 2002 May 6.0 TT = JDT 2452400.5  

T 2002 May 20.65609 TT                                  Nakano

q   8.5642155            (2000.0)            P               Q

n   0.01899412     Peri.  321.85499     +0.87613750     -0.41857298

a  13.9120133      Node    64.50037     +0.48111216     +0.72813874

e   0.3844014      Incl.   15.36281     +0.03023522     +0.54278047

P  51.89 (+/- 0.09 day)

From 89 observations 2001 Aug. 27-2003 Nov. 23, mean residual 0".56.

Residuals in seconds of arc 

2001/                     011029 568  0.5-  0.1-    021013 204  0.3+  0.8+  

010827 699 (0.9+  5.5-)   011114 402  0.8-  0.6+    021013 204  0.5+  0.0   

010827 699 (0.9+  2.4-)   011114 402  0.4-  0.3+    021013 204  0.5+  0.3+  

010827 699  1.0-  1.6+    011114 402  0.4-  0.5+    021014 360  0.2-  0.3-  

010827 699  1.7+  0.1-    011120 204 (3.8-  0.4+)   021014 360  1.1-  0.0   

011015 644  0.4-  0.5-    011120 204  0.8+  0.3-    021014 360  0.2+  0.2-  

011015 644  0.3+  0.7-    011121 360  1.0+  0.3+    021029 644  0.7-  0.7+  

011015 644  0.0   1.0-    011121 360  1.0+  0.4-    021029 644  0.1-  1.0+  

011015 046 (3.3+  0.5+)   011121 360  0.9+  0.7-    021029 644  0.2-  1.3+  

011015 046  0.2-  1.9-    2002/                     021106 360  0.2-  0.1-  

011016 644  0.3+  0.4+    020111 360  0.3-  0.3-    021106 360  0.4+  0.6-  

011016 644  0.1-  0.2-    020111 360  0.7+  1.5+    021106 360  0.3-  0.2-  

011016 644  0.5+  0.6+    020111 360  0.2+  0.3+    021121 644  0.3-  0.6+  

011018 644  0.2+  0.5+    020117 568  0.3+  1.0-    021121 644  0.3-  0.4+  

011018 644  0.2+  0.6+    020117 568  0.5+  0.9-    021121 644  0.1-  0.2+  

011018 644  0.0   0.7+    020117 568  0.3-  0.3+    021122 644  0.4-  0.3+  

011021 644  1.3-  0.0     020117 568  0.1+  0.7-    021122 644  0.5-  0.4+  

011021 644  0.8-  0.2+    020117 568  0.0   0.5-    021122 644  0.2-  0.9+  

011023 644 (0.6+  2.2+)   020117 568  0.7+  0.1-    2003/                   

011023 644 (0.8+  2.7+)   020817 568  0.0   0.1+    031029 699  0.6+  0.7-  

011023 644  1.1+  1.6+    020817 568  0.0   0.1+    031029 699 (1.2+  2.3-) 

011023 402  0.3-  0.2-    020817 568  0.2-  0.1+    031029 691  0.1-  0.3-  

011023 402  0.2-  1.0-    020912 360  0.0   0.9-    031029 699  1.7+  0.1+  

011023 402 (0.5+  2.3-)   020912 360  0.4+  0.2-    031029 691  0.6-  0.2-  

011025 402  0.7+  0.7-    020912 360  0.4-  0.8-    031029 699 (2.4+  1.8-) 

011025 402  0.6-  0.6-    021005 360  0.1+  0.3+    031029 691  0.1+  0.0   

011025 402  0.2-  0.2+    021005 360  0.0   0.2-    031102 204  0.2+  0.3-  

011029 568  0.4-  0.1-    021009 699  0.5+  0.2-    031102 204  0.8+  0.2+  

011029 568  0.5-  0.3-    021009 699  0.1+  0.2-    031117 360  0.5-  0.1-  

011029 568  0.1-  0.1+    021009 699  0.0   0.5-    031117 360  0.3+  0.4-  

011029 568  0.3-  0.2+    021009 644  0.5-  0.1+    031117 360  0.9-  0.1-  

011029 568  0.0   0.1-    021009 699  0.7+  0.0     031123 360  0.2-  0.2-  

011029 568  0.4-  0.1+    021009 644  0.1-  0.2+    031123 360  0.4-  0.1+  

011029 568  0.1-  0.1+    021009 644  0.3-  0.2+                            

NAKANO

         **** Don't distribute anyone except personal use only ****

                (C) Copyright 2003 OAA/ComputingSection

write mail from CFAD0::NAKANO on 2003-12-14 18:52:00(JST).

 



    C/2001 T4 (NEAT)                                                      

Epoch 2002 May 6.0 TT = JDT 2452400.5  

T 2002 May 20.87468 TT                                 Nakano

q   8.5642279            (2000.0)            P               Q

n   0.01899337     Peri.  321.86554     +0.87606412     -0.41872580

a  13.9123770      Node    64.49986     +0.48123977     +0.72805258

e   0.3844166      Incl.   15.36296     +0.03033060     +0.54277818

P  51.89 (+/- 0.10 day)

From 77 observations 2001 Aug. 27-2002 Nov. 22, mean residual 0".56.



NAKANO

         **** Don't distribute anyone except personal use only ****

                (C) Copyright 2002 OAA/ComputingSection

write mail from CFAD0::NAKANO on 2002-12-16 23:29:08(JST).

 



    C/2001 T4 (NEAT)                                                      

Epoch 2002 May 6.0 TT = JDT 2452400.5  

T 2002 May 20.67801 TT                                  Nakano

q   8.5642435            (2000.0)            P               Q

n   0.01899322     Peri.  321.85612     +0.87613011     -0.41858816

a  13.9124508      Node    64.50026     +0.48112502     +0.72812978

e   0.3844188      Incl.   15.36285     +0.03024469     +0.54278078

P  51.89 (+/- 0.11 day)

From 71 observations 2001 Aug. 27-2002 Nov. 6, mean residual 0".58.



NAKANO

         **** Don't distribute anyone except personal use only ****

                (C) Copyright 2002 OAA/ComputingSection

write mail from CFAD0::NAKANO on 2002-11-19 01:50:02(JST).

 

    C/2001 T4 (NEAT)

Epoch 2002 May  6.0 TT = JDT 2452400.5  

T 2002 May  20.58926 TT                                 Nakano

q   8.5642519            (2000.0)            P               Q

n   0.01899310     Peri.  321.85166     +0.87615984     -0.41852635

a  13.9125080      Node    64.50064     +0.48107333     +0.72816524

e   0.3844207      Incl.   15.36276     +0.03020575     +0.54278088

P  51.89 (+/- 0.12 day)

From 65 observations 2001 Aug. 27-2002 Oct. 14, mean residual 0".57.



NAKANO

         **** Don't distribute anyone except personal use only ****

                (C) Copyright 2002 OAA/ComputingSection

write mail from CFAD0::NAKANO on 2002-10-29 00:21:33(JST).

 



    C/2001 T4 (NEAT) 

Epoch 2002 May 6.0 TT = JDT 2452400.5  

T 2002 May 20.36107 TT                                  Nakano

q   8.5642452            (2000.0)            P               Q

n   0.01899415     Peri.  321.84030     +0.87623652     -0.41836674

a  13.9119985      Node    64.50151     +0.48093993     +0.72825630

e   0.3843986      Incl.   15.36253     +0.03010544     +0.54278175

P  51.89 (+/- 0.15 day)

From 50 observations 2001 Aug. 27-2002 Sept. 12, mean residual 0".61.



NAKANO

         **** Don't distribute anyone except personal use only ****

                (C) Copyright 2002 OAA/ComputingSection

write mail from CFAD0::NAKANO on 2002-09-17 00:59:40(JST).

 

◎C/2001 T4の軌道と予報位置です



 同日,9月12日に久万の中村彰正氏は,昨年11月21日の久万の観測以来,

観測が途絶えていたこの彗星の観測に成功しました.氏の CCD全光度は19.5

等でした.氏のこの観測は,1月17日と8月17日にマウナケアから報告され

ていた1夜の観測が同彗星の観測であることを確認しました.なお,もう1

夜の観測が望まれます.



    C/2001 T4 (NEAT) 

Epoch 2002 May 6.0 TT = JDT 2452400.5  

T 2002 May 20.67480 TT                                  Nakano

q   8.5642273            (2000.0)            P               Q

n   0.01899409     Peri.  321.85493     +0.87613117     -0.41858696

a  13.9120286      Node    64.50129     +0.48112326     +0.72813443

e   0.3844013      Incl.   15.36260     +0.03024210     +0.54277548

P  51.89 (+/- 0.16 day)

From 47 observations 2001 Aug. 27-2002 Sept. 12, mean residual 0".60.

 

Date/        TT  R.A.(2000) Decl.     Delta   r     Daily motion  Mag.  Moon Age

              h    h  m       。  ,                      ,  / PA 。  m1      。

2002 Sept.10 18  02 33.17  +05 34.2   7.898  8.574     2.0 / 247  18.3  174  .18

          11 18  02 33.05  +05 33.4   7.886  8.574     2.1 / 248  18.3  163  .28

          12 18  02 32.92  +05 32.6   7.875  8.574     2.2 / 248  18.3  149  .39

          13 18  02 32.78  +05 31.7   7.863  8.575     2.3 / 249  18.3  136  .50

          14 18  02 32.63  +05 30.9   7.852  8.575     2.4 / 249  18.3  123  .61

          15 18  02 32.48  +05 30.0   7.841  8.575     2.5 / 250  18.3  110  .70

          16 18  02 32.32  +05 29.2   7.830  8.575     2.6 / 250  18.3   97  .79

          17 18  02 32.16  +05 28.3   7.819  8.575     2.7 / 250  18.3   85  .87

          18 18  02 31.99  +05 27.3   7.809  8.576     2.8 / 251  18.3   73  .93

          19 18  02 31.81  +05 26.4   7.798  8.576     2.9 / 251  18.3   61  .97

          20 18  02 31.63  +05 25.5   7.788  8.576     3.0 / 251  18.3   49  .99

          21 18  02 31.44  +05 24.5   7.779  8.576     3.1 / 252  18.3   37 1.00

          22 18  02 31.24  +05 23.5   7.769  8.576     3.2 / 252  18.3   25  .99

          23 18  02 31.04  +05 22.6   7.760  8.576     3.2 / 252  18.3   14  .96

          24 18  02 30.83  +05 21.6   7.751  8.577     3.3 / 252  18.3    6  .91

          25 18  02 30.62  +05 20.6   7.742  8.577     3.4 / 253  18.3   13  .85

          26 18  02 30.40  +05 19.5   7.733  8.577     3.5 / 253  18.3   24  .78

          27 18  02 30.18  +05 18.5   7.725  8.577     3.6 / 253  18.3   36  .69

          28 18  02 29.95  +05 17.5   7.716  8.577     3.6 / 253  18.3   48  .60

          29 18  02 29.72  +05 16.4   7.709  8.578     3.7 / 254  18.3   61  .50

          30 18  02 29.48  +05 15.4   7.701  8.578     3.8 / 254  18.3   74  .39

     Oct.  1 18  02 29.23  +05 14.3   7.693  8.578     3.9 / 254  18.3   87  .29

           2 18  02 28.98  +05 13.3   7.686  8.578     3.9 / 254  18.3  101  .19

           3 18  02 28.73  +05 12.2   7.680  8.579     4.0 / 254  18.3  116  .11

           4 18  02 28.47  +05 11.1   7.673  8.579     4.1 / 255  18.3  131  .05

           5 18  02 28.21  +05 10.1   7.667  8.579     4.1 / 255  18.3  146  .01

           6 18  02 27.94  +05 09.0   7.661  8.579     4.2 / 255  18.3  160  .00

           7 18  02 27.67  +05 07.9   7.655  8.579     4.2 / 255  18.3  173  .03

           8 18  02 27.39  +05 06.8   7.649  8.580     4.3 / 256  18.3  167  .08

           9 18  02 27.12  +05 05.7   7.644  8.580     4.4 / 256  18.3  153  .15

          10 18  02 26.83  +05 04.7   7.639  8.580     4.4 / 256  18.3  139  .24

          11 18  02 26.55  +05 03.6   7.635  8.580     4.5 / 256  18.2  125  .34

          12 18  02 26.26  +05 02.5   7.630  8.580     4.5 / 256  18.2  112  .45

          13 18  02 25.97  +05 01.5   7.626  8.581     4.5 / 257  18.2   99  .55

